SCP
0 0 0 0 0 0 0 0 0 0 0 0 0 0 0 0 0 0 0 0 0 0 0 0 0 0 0 0 0 0 0 0 0 0 0 0 0 0 0 0 0 0 0 0
0 0 0 0 0 0 0 0 0 0 0 0 0 0 0 0 0 0 0 0 0 0 0 0 0 0 0 0 0 0 0 -0 -0 0 0 0 0 0 0 0 0 0 0 0
0 0 0 0 0 0 0 0 0 0 0 0 0 0 0 0 0 0 0 0 0 0 0 0 0 0 0 0 0 0 0 -0 0 0 0 0 0 0 0 0 0 0 0 0
0 0 0 0 0 0 0 0 0 0 0 0 0 0 0 0 0 0 0 0 0 0 0 0 0 0 0 0 0 0 0 0 0 0 0 0 0 0 0 0 0 0 0 0
0 0 0 0 0 0 0 0 0 0 0 0 0 0 0 0 0 0 0 0 0 0 0 0 0 0 0 0 0 0 0 0 0 0 0 0 0 0 0 0 0 0 0 0
0 0 0 0 0 0 0 0 0 0 0 0 0 0 0 0 0 0 0 0 0 0 0 0 0 0 0 0 0 0 0 0 0 0 0 0 0 0 0 0 0 0 0 0
0 0 0 0 0 0 0 0 0 0 0 0 0 0 0 0 0 0 0 0 0 0 0 0 0 0 0 0 0 0 0 0 0 0 0 0 0 0 0 0 0 0 0 0
0 0 0 0 0 0 0 0 0 0 0 0 0 0 0 0 0 0 0 0 0 0 0 0 0 0 0 0 0 0 0 0 0 0 0 0 0 0 0 0 0 0 0 0
0 0 0 0 0 0 0 0 0 0 0 0 0 0 0 0 0 0 0 0 0 0 0 0 0 0 0 0 0 0 0 0 0 0 0 0 0 0 0 0 0 0 0 0
0 0 0 0 0 0 0 0 0 0 0 0 0 0 0 0 0 0 0 0 0 0 0 0 0 0 0 0 0 0 0 0 0 0 0 0 0 0 0 0 0 0 0 0
0 0 0 0 0 0 0 0 0 0 0 0 0 0 0 0 0 0 0 0 0 0 0 0 0 0 0 0 0 0 0 0 0 0 0 0 0 0 0 0 0 0 0 0
0 0 0 0 0 0 0 0 0 0 0 0 0 0 0 0 0 0 0 0 0 0 0 0 0 0 0 0 0 0 0 0 0 0 0 0 0 0 0 0 0 0 0 0
0 0 0 0 0 0 0 0 0 0 0 0 0 0 0 0 0 0 0 0 0 0 0 0 0 0 0 0 0 0 0 0 0 0 0 0 0 0 0 0 0 0 0 0
0 0 0 0 0 0 0 0 0 0 0 0 0 0 0 0 0 0 0 0 0 0 0 0 0 0 0 0 0 0 0 0 0 0 0 0 0 0 0 0 0 0 0 0
0 0 0 0 0 0 0 0 0 0 0 0 0 0 0 0 0 0 0 0 0 0 0 0 0 0 0 0 0 0 0 0 0 0 0 0 0 0 0 0 0 0 0 0
0 0 0 0 0 0 0 0 0 0 0 0 0 0 0 0 0 0 0 0 0 0 0 0 0 0 0 0 0 0 0 0 0 0 0 0 0 0 0 0 0 0 0 0
0 0 0 0 0 0 0 0 0 0 0 0 0 0 0 0 0 0 0 0 0 0 0 0 0 0 0 0 0 0 0 0 0 0 0 0 0 0 0 0 0 0 0 0
0 0 0 0 0 0 0 0 0 0 0 0 0 0 0 0 0 0 0 0 0 0 0 0 0 0 0 0 0 0 0 0 0 0 0 0 0 0 0 0 0 0 0 0
0 0 0 0 0 0 0 0 0 0 0 0 0 0 0 0 0 0 0 0 0 0 0 0 0 0 0 0 0 0 0 0 0 0 0 0 0 0 0 0 0 0 0 0
0 0 0 0 0 0 0 0 0 0 0 0 0 0 0 0 0 0 0 0 0 0 0 0 0 0 0 0 0 0 0 0 0 0 0 0 0 0 0 0 0 0 0 0
0 0 0 0 0 0 0 0 0 0 0 0 0 0 0 0 0 0 0 0 0 0 0 0 0 0 0 0 0 0 0 0 0 0 0 0 0 0 0 0 0 0 0 0
0 0 0 0 0 0 0 0 0 0 0 0 0 0 0 0 0 0 0 0 0 0 0 0 0 0 0 0 0 0 0 0 0 0 0 0 0 0 0 0 0 0 0 0
0 0 0 0 0 0 0 0 0 0 0 0 0 0 0 0 0 0 0 0 0 0 0 0 0 0 0 0 0 0 0 0 0 0 0 0 0 0 0 0 0 0 0 0
0 0 0 0 0 0 0 0 0 0 0 0 0 0 0 0 0 0 0 0 0 0 0 0 0 0 0 0 0 0 0 0 0 0 0 0 0 0 0 0 0 0 0 0
0 0 0 0 0 0 0 0 0 0 0 0 0 0 0 0 0 0 0 0 0 0 0 0 0 0 0 0 0 -0 0 0 0 0 0 0 0 0 0 0 0 0 0 0
0 0 0 0 0 0 0 0 0 0 0 0 0 0 0 0 0 0 0 0 0 0 0 0 0 0 0 0 0 0 0 0 0 0 0 0 0 0 0 0 0 0 0 0
0 0 0 0 0 0 0 0 0 0 0 0 0 0 0 0 0 0 0 0 0 0 0 0 0 0 0 0 0 0 0 0 0 0 0 0 0 0 0 0 0 0 0 0
Wind_Speed
5 4 3 4 5 4 6 7 7 7 6 8 6 5 5 5 6 6 7 8 9 9 8 9 9 9 9 9 9 9 9 9 9 8 7 7 7 7 6 5 5 5 4 4
3 3 3 6 7 6 6 5 7 7 8 4 4 3 3 5 6 7 7 9 9 9 10 10 10 10 10 10 10 9 8 9 9 8 8 7 7 7 6 5 5 5 4 4
4 4 5 7 5 5 4 3 4 6 6 3 4 5 5 5 6 6 7 8 9 9 9 10 10 9 10 10 10 9 8 8 8 8 8 8 7 7 7 6 5 5 4 4
2 3 6 6 1 2 3 4 4 4 4 3 4 5 5 4 4 5 7 9 9 9 9 9 9 9 9 9 9 9 9 9 8 8 8 8 7 7 7 6 5 5 5 4
1 3 8 5 1 2 2 5 3 4 4 4 4 4 4 3 3 5 7 7 7 8 8 9 9 9 9 9 9 9 10 10 9 8 8 8 7 7 6 6 5 5 5 4
2 3 7 5 1 1 2 5 2 2 3 3 3 3 5 4 6 7 7 7 7 8 8 8 9 8 9 10 9 10 11 11 9 8 8 8 7 7 6 5 6 5 5 4
4 5 9 5 2 2 2 6 2 2 3 2 3 5 6 7 7 7 7 8 8 8 8 8 8 8 9 9 10 11 11 10 9 8 8 7 6 6 6 5 5 5 5 5
4 5 9 2 3 4 6 2 1 2 2 3 5 6 6 7 8 8 8 8 8 8 8 8 8 8 9 10 11 10 10 10 9 8 7 7 6 6 5 5 5 5 5 5
8 8 3 3 4 3 1 2 2 3 3 4 5 6 7 7 7 8 8 8 8 8 9 9 8 8 9 11 11 11 10 10 9 9 7 7 6 6 5 4 3 4 4 4
4 6 4 4 3 2 2 3 3 3 4 3 5 6 7 7 8 8 8 8 7 8 9 10 9 9 9 11 11 10 10 10 9 8 7 6 5 5 4 4 4 4 4 4
5 5 4 3 4 4 3 3 3 4 3 4 5 6 6 7 7 7 8 8 7 8 9 10 10 10 10 10 10 10 10 9 8 7 7 6 5 4 5 4 5 5 4 4
7 5 4 5 3 3 3 3 4 4 4 4 4 6 6 6 6 7 8 8 8 9 10 10 10 10 10 10 9 9 9 8 6 6 5 5 5 5 7 7 10 10 9 7
4 2 3 4 2 2 3 4 4 4 4 5 5 4 5 6 6 6 7 8 9 9 10 10 10 10 10 10 10 9 9 9 6 6 5 5 5 5 6 7 9 9 9 9
3 1 2 2 3 2 3 3 3 3 3 4 4 4 5 5 6 7 8 8 9 9 9 9 10 10 10 10 10 9 9 9 7 5 5 5 5 5 4 5 6 5 7 8
2 3 4 3 2 2 2 2 2 4 4 4 3 4 5 6 7 8 8 8 8 8 9 9 10 11 10 10 10 10 8 6 6 5 4 5 5 4 4 5 4 5 5 6
2 2 2 2 3 3 2 2 3 4 4 4 5 5 5 6 7 7 7 7 7 9 9 9 10 10 10 10 10 8 7 11 9 5 5 4 4 4 4 4 4 4 5 5
2 2 2 3 3 3 3 3 4 4 4 5 6 6 6 6 7 7 7 7 7 8 9 9 10 10 9 9 8 7 6 8 10 6 5 4 4 4 4 4 4 4 4 5
3 3 3 3 3 4 4 4 4 4 5 5 5 5 5 6 7 8 8 8 8 8 8 8 9 9 9 9 7 6 6 6 5 5 5 5 5 4 4 4 4 5 5 5
1 2 2 2 3 3 3 4 4 4 5 4 4 5 6 6 7 7 7 7 8 9 9 9 14 10 9 10 10 6 6 6 6 5 5 7 6 4 4 4 4 4 5 4
1 1 2 2 2 2 3 4 4 4 4 4 4 5 6 6 6 7 7 7 6 6 9 11 10 8 8 9 10 5 5 5 5 5 5 5 5 4 4 4 4 4 4 4
1 1 2 2 3 3 3 3 3 4 5 4 4 6 7 7 6 6 6 7 6 7 9 12 8 7 7 8 9 5 5 5 5 5 5 5 5 4 4 4 5 5 4 4
1 1 2 2 3 3 3 3 3 4 4 4 5 5 6 7 6 6 5 5 7 12 9 6 6 9 11 10 5 5 5 5 5 4 4 4 4 4 4 5 4 4 4 4
1 2 2 2 3 3 4 3 3 4 4 5 5 5 5 5 5 5 7 5 6 11 9 6 10 15 14 7 4 4 5 5 5 5 4 4 4 4 4 4 4 4 4 4
1 1 2 2 2 2 4 4 4 3 4 5 4 5 5 5 4 4 5 10 13 13 7 10 15 15 13 5 4 4 5 5 5 5 4 4 4 4 4 4 4 4 4 4
1 1 1 2 2 2 3 4 4 4 4 4 5 5 3 3 4 5 5 7 11 12 7 10 14 14 8 5 5 5 4 4 5 4 4 4 4 4 4 4 4 4 4 4
1 1 2 2 2 2 2 3 3 3 4 4 5 4 4 4 4 5 5 6 8 10 7 6 7 8 5 5 5 5 5 5 6 5 4 4 4 4 4 4 5 4 4 4
1 1 1 2 2 2 2 2 3 4 4 5 5 5 5 5 5 5 5 5 6 6 6 5 5 5 5 5 5 5 5 5 4 4 4 4 4 4 4 5 4 4 4 4
Wind_Direction
256 273 264 255 261 239 219 218 230 256 260 279 289 291 301 316 326 333 337 340 341 339 334 333 334 335 334 331 331 331 330 329 325 321 318 317 317 318 314 309 304 294 286 289
287 290 292 277 268 249 241 240 247 268 276 280 298 307 318 325 327 326 328 331 332 333 332 332 331 330 331 329 329 328 326 322 322 323 322 320 317 317 315 308 304 302 295 291
281 320 336 281 252 219 222 229 223 246 261 303 315 315 311 314 316 313 317 323 327 326 324 323 323 323 324 322 323 324 321 320 320 323 322 319 316 317 315 308 307 306 298 291
295 358 263 251 235 184 219 253 239 244 266 279 281 292 288 288 293 305 316 320 320 320 321 319 319 321 320 321 324 324 321 320 319 321 319 318 317 314 312 307 303 299 297 290
189 272 279 289 256 169 219 279 240 229 264 290 311 316 298 301 310 301 305 308 309 312 313 317 320 322 323 324 326 325 324 320 317 316 314 315 315 314 311 308 304 299 297 295
163 232 257 260 251 143 98 287 266 211 258 291 349 324 294 320 324 316 315 315 315 315 315 318 318 321 324 323 325 324 320 315 313 314 311 310 309 311 313 309 302 303 300 295
200 235 264 258 254 119 186 264 277 221 252 255 237 245 282 311 313 311 312 315 317 317 316 315 318 323 322 320 319 316 315 315 316 314 309 304 304 308 310 308 307 304 301 299
181 219 257 227 139 184 225 267 270 258 259 261 269 284 299 305 309 315 317 318 319 318 315 317 322 324 319 316 314 315 316 316 315 313 308 308 307 308 310 308 308 305 304 304
197 217 242 188 200 223 193 245 261 258 271 273 282 288 299 304 305 308 311 313 316 314 314 317 322 322 315 313 316 317 317 315 314 312 308 308 307 306 309 306 304 307 304 302
250 261 250 242 243 252 230 235 253 259 268 266 274 286 295 301 305 309 311 312 315 316 316 316 320 319 311 312 316 317 315 313 312 312 311 310 305 303 303 301 301 302 304 299
253 272 298 268 229 235 252 254 270 278 268 267 274 286 290 296 300 304 308 312 313 312 311 311 316 316 315 317 319 316 313 311 311 310 307 305 306 300 298 289 295 300 299 297
227 224 209 249 245 227 244 264 271 277 287 284 273 281 291 292 296 301 306 311 313 312 312 313 315 315 316 318 319 317 314 314 311 310 309 307 307 311 311 309 313 312 314 309
225 226 218 256 269 235 242 263 272 267 271 287 290 284 291 294 299 303 306 311 310 310 310 311 313 314 316 318 317 313 309 308 307 310 311 310 309 310 314 318 319 320 321 317
225 200 264 254 255 264 260 274 284 286 285 283 291 299 300 299 302 305 306 307 307 308 309 311 313 313 315 316 316 313 309 306 307 305 305 305 307 307 306 308 315 318 319 319
237 217 234 267 289 292 289 295 301 301 303 306 305 304 305 304 304 303 305 309 312 312 313 315 315 315 319 319 318 315 313 309 304 301 304 306 308 308 307 305 304 310 316 320
263 257 246 263 275 284 290 286 285 291 299 302 304 302 299 296 297 300 305 311 313 314 315 316 315 316 320 322 321 318 313 315 318 313 311 313 315 315 314 313 312 314 315 319
196 251 255 273 278 281 272 264 265 278 288 290 292 297 302 304 305 307 309 309 303 300 304 309 311 315 319 321 319 317 316 318 323 319 313 312 312 311 311 314 316 317 317 320
213 229 234 242 259 274 283 282 278 281 280 281 291 297 300 302 301 303 306 310 311 308 308 310 313 317 319 320 319 316 316 317 320 319 319 318 316 316 320 318 319 320 321 325
226 241 256 263 261 263 275 283 285 283 285 288 291 291 290 291 292 297 304 309 313 314 317 318 322 326 322 320 324 317 317 318 319 320 320 320 324 324 323 323 322 321 322 326
269 269 276 286 288 273 278 284 288 290 289 289 290 293 296 296 298 301 305 300 293 293 303 313 318 317 317 317 323 318 319 318 319 320 321 320 320 321 323 322 321 321 321 323
288 299 301 301 301 296 286 287 290 291 294 291 286 288 292 297 300 302 305 305 305 307 311 317 322 317 315 319 323 322 322 323 323 322 321 320 320 320 321 322 322 321 320 321
281 288 293 299 304 305 305 300 292 291 296 295 292 292 298 303 307 304 290 285 301 315 320 313 313 317 323 328 329 331 331 327 323 322 321 321 320 320 322 324 322 320 320 321
272 280 292 297 296 299 308 308 299 294 294 296 298 299 297 297 300 304 308 308 309 317 321 313 318 324 330 338 334 330 327 325 322 320 319 319 318 318 319 321 320 320 320 319
279 294 299 306 314 316 315 313 311 305 298 295 295 295 298 304 301 285 286 308 318 321 320 318 326 329 336 341 329 325 322 319 317 316 315 315 316 318 317 316 316 317 318 318
285 290 300 314 312 303 302 310 314 312 312 309 308 306 301 290 291 303 306 308 317 324 320 321 327 331 336 325 321 318 315 312 312 314 314 316 317 316 314 313 312 312 314 312
281 282 279 274 276 289 302 311 312 314 317 316 314 312 311 307 300 301 306 310 313 321 322 316 318 322 321 318 316 316 314 316 321 324 318 314 314 313 312 312 313 310 309 307
327 316 313 314 314 310 308 305 305 308 310 308 308 312 315 316 316 316 315 315 316 317 315 314 316 316 316 315 315 315 314 313 312 312 312 311 310 308 308 307 306 306 306 304